[ ตารางข้อมูล ] [ Min-Max ] [ วันนี้4 ] [ วันนี้2 ] [ เทียบ3วัน A ] [ เทียบ4วัน B ]   

วันนี้2   [ ◀ ช่วงเก่ากว่า ] [ ช่วงที่ 267 ] [ ช่วงใหม่กว่า ▶ ] [ ล่าสุด ]    [ 3 ชั่วโมง ] [ 6 ชั่วโมง ] [ 12 ชั่วโมง ] [ 24 ชั่วโมง ]   วันนี้2

อุณภูมิตู้ Knockdown4529  ราย 3 ชั่วโมง  ที่วัดได้ ในช่วงวันเวลา 04/04/2026 (05:07) ถึง 04/04/2026 (08:07) 
ความชื้นในตู้ Knockdown4529  ราย 3 ชั่วโมง  ที่วัดได้ ในช่วงวันเวลา 04/04/2026 (05:07) ถึง 04/04/2026 (08:07) 

 
DS18B20SHTC3 
IDDate d/m/Y & Timedata1
สูง
data2
ต่ำ
data3
นอก
temp
pcb
hum
pcb
Time
 8667  04/04/2026 08:03:15  25.9  25.9  26.9  25.9  69.4  08:03 
 8666  04/04/2026 07:58:33  25.9  25.9  26.5  25.7  69.4  07:58 
 8665  04/04/2026 07:53:51  25.9  25.9  26.4  25.8  69.6  07:53 
 8664  04/04/2026 07:49:10  25.9  25.9  26.1  25.6  69.6  07:49 
 8663  04/04/2026 07:44:28  25.9  25.9  25.9  25.7  69.7  07:44 
 8662  04/04/2026 07:39:46  25.9  25.8  25.7  25.7  69.8  07:39 
 8661  04/04/2026 07:35:05  25.8  25.9  25.5  25.6  69.9  07:35 
 8660  04/04/2026 07:30:23  25.8  25.9  25.0  25.6  69.9  07:30 
 8659  04/04/2026 07:25:42  25.8  25.9  24.8  25.7  69.9  07:25 
 8658  04/04/2026 07:21:00  25.8  25.9  24.5  25.5  70.0  07:21 
 8657  04/04/2026 07:16:18  25.7  25.9  24.2  25.6  70.1  07:16 
 8656  04/04/2026 07:11:37  25.8  25.9  24.3  25.7  70.1  07:11 
 8655  04/04/2026 07:06:55  25.7  25.9  24.1  25.7  70.1  07:06 
 8654  04/04/2026 07:02:14  25.8  25.9  23.8  25.7  70.1  07:02 
 8653  04/04/2026 06:57:33  25.8  25.9  23.5  25.7  70.1  06:57 
 8652  04/04/2026 06:52:52  25.8  25.9  23.5  25.7  70.2  06:52 
 8651  04/04/2026 06:48:10  25.8  25.9  23.5  25.8  70.3  06:48 
 8650  04/04/2026 06:43:28  25.8  25.9  23.8  25.8  70.2  06:43 
 8649  04/04/2026 06:38:46  25.8  26.0  23.8  25.6  70.1  06:38 
 8648  04/04/2026 06:34:04  25.8  26.0  23.7  25.6  70.0  06:34 
 8647  04/04/2026 06:29:22  25.8  26.0  23.7  25.9  70.1  06:29 
 8646  04/04/2026 06:24:41  25.8  26.0  23.9  25.9  70.1  06:24 
 8645  04/04/2026 06:19:59  25.9  26.1  23.7  25.7  70.1  06:19 
 8644  04/04/2026 06:15:18  25.9  26.1  23.6  25.9  70.1  06:15 

Data every 5 minute.


ใช้เวลาประมวลผล 0.00302 วินาที